| time (UTC) | temp F | wind direction | speed knots | gust knots | rain 1hr in | rain 24hr in | rain mn in | humidity % | barometer mb |
| 20260505100016 | 57 | 114 | 0.0 | 1.7 | 0.00 | 0.00 | 0.00 | 51 | 1008.8 |
| 20260505094518 | 57 | 88 | 0.0 | 2.6 | 0.00 | 0.00 | 0.00 | 51 | 1009.1 |
| 20260505093023 | 57 | 256 | 1.7 | 4.3 | 0.00 | 0.00 | 0.00 | 53 | 1009.2 |
| 20260505091532 | 57 | 210 | 0.0 | 0.9 | 0.00 | 0.00 | 0.00 | 58 | 1009.1 |
| 20260505090039 | 57 | 184 | 0.0 | 0.0 | 0.00 | 0.00 | 0.00 | 58 | 1009.1 |
| 20260505084516 | 57 | 184 | 0.0 | 0.0 | 0.00 | 0.00 | 0.00 | 58 | 1009.1 |
| 20260505083020 | 57 | 184 | 0.0 | 1.7 | 0.00 | 0.00 | 0.00 | 58 | 1009.2 |
| 20260505081526 | 57 | 154 | 0.0 | 0.0 | 0.00 | 0.00 | 0.00 | 58 | 1009.1 |
| 20260505080039 | 58 | 188 | 0.0 | 2.6 | 0.00 | 0.00 | 0.00 | 58 | 1009.1 |
| 20260505074510 | 58 | 113 | 0.9 | 5.2 | 0.00 | 0.00 | 0.00 | 53 | 1009.0 |
| 20260505073027 | 58 | 181 | 0.0 | 2.6 | 0.00 | 0.00 | 0.00 | 55 | 1008.9 |
| 20260505071519 | 58 | 207 | 0.9 | 6.1 | 0.00 | 0.00 | 0.00 | 57 | 1008.7 |
| 20260505070024 | 58 | 113 | 1.7 | 13.9 | 0.00 | 0.00 | 0.00 | 58 | 1008.5 |
| 20260505064508 | 57 | 104 | 2.6 | 11.3 | 0.00 | 0.00 | 0.00 | 59 | 1008.7 |
| 20260505063015 | 57 | 127 | 2.6 | 9.6 | 0.00 | 0.00 | 0.00 | 61 | 1008.7 |
| 20260505061516 | 58 | 89 | 2.6 | 7.0 | 0.00 | 0.00 | 0.00 | 63 | 1008.8 |
| 20260505060033 | 58 | 234 | 2.6 | 7.8 | 0.00 | 0.00 | 0.00 | 60 | 1008.8 |
| 20260505054524 | 58 | 227 | 1.7 | 10.4 | 0.00 | 0.00 | 0.00 | 57 | 1008.7 |
| 20260505053007 | 59 | 113 | 2.6 | 7.8 | 0.00 | 0.00 | 0.00 | 54 | 1008.6 |
| 20260505051517 | 59 | 219 | 5.2 | 10.4 | 0.00 | 0.00 | 0.00 | 52 | 1008.3 |
| 20260505041509 | 63 | 142 | 2.6 | 7.0 | 0.00 | 0.00 | 0.00 | 46 | 1007.6 |
| 20260505040012 | 63 | 136 | 1.7 | 8.7 | 0.00 | 0.00 | 0.00 | 44 | 1007.5 |
| 20260505034524 | 64 | 143 | 1.7 | 4.3 | 0.00 | 0.00 | 0.00 | 42 | 1007.3 |
| 20260505033034 | 64 | 141 | 0.9 | 3.5 | 0.00 | 0.00 | 0.00 | 38 | 1007.1 |
| 20260505031526 | 65 | 119 | 0.0 | 3.5 | 0.00 | 0.00 | 0.00 | 38 | 1007.0 |
| 20260505030012 | 65 | 146 | 0.0 | 1.7 | 0.00 | 0.00 | 0.00 | 38 | 1006.9 |
| 20260505024515 | 66 | 141 | 0.9 | 3.5 | 0.00 | 0.00 | 0.00 | 36 | 1006.9 |
| 20260505023035 | 67 | 160 | 0.0 | 0.9 | 0.00 | 0.00 | 0.00 | 36 | 1006.9 |
| 20260505021527 | 67 | 182 | 0.0 | 1.7 | 0.00 | 0.00 | 0.00 | 34 | 1006.9 |
| 20260505020026 | 68 | 325 | 0.9 | 2.6 | 0.00 | 0.00 | 0.00 | 33 | 1006.8 |
| 20260505014522 | 69 | 331 | 0.9 | 2.6 | 0.00 | 0.00 | 0.00 | 32 | 1006.7 |
| 20260505013014 | 69 | 316 | 0.9 | 3.5 | 0.00 | 0.00 | 0.00 | 30 | 1006.7 |
| 20260505011522 | 69 | 322 | 0.0 | 1.7 | 0.00 | 0.00 | 0.00 | 31 | 1006.8 |
| 20260505010025 | 70 | 180 | 0.0 | 0.9 | 0.00 | 0.00 | 0.00 | 32 | 1006.9 |
| 20260505004526 | 70 | 229 | 0.0 | 1.7 | 0.00 | 0.00 | 0.00 | 33 | 1006.9 |
| 20260505003015 | 70 | 228 | 0.9 | 3.5 | 0.00 | 0.00 | 0.00 | 31 | 1007.1 |
| 20260505001520 | 70 | 229 | 1.7 | 3.5 | 0.00 | 0.00 | 0.00 | 31 | 1007.3 |
| 20260505000025 | 71 | 240 | 0.9 | 5.2 | 0.00 | 0.00 | 0.00 | 33 | 1007.4 |
| 20260504234525 | 70 | 236 | 0.9 | 3.5 | 0.00 | 0.00 | 0.00 | 34 | 1007.5 |
| 20260504233030 | 70 | 276 | 0.9 | 5.2 | 0.00 | 0.00 | 0.00 | 33 | 1007.8 |
| 20260504231516 | 70 | 195 | 0.9 | 3.5 | 0.00 | 0.00 | 0.00 | 34 | 1007.7 |
| 20260504230021 | 70 | 262 | 0.9 | 5.2 | 0.00 | 0.00 | 0.00 | 33 | 1008.0 |
| 20260504224533 | 70 | 165 | 0.0 | 4.3 | 0.00 | 0.00 | 0.00 | 34 | 1008.0 |
| 20260504223028 | 68 | 161 | 0.9 | 3.5 | 0.00 | 0.00 | 0.00 | 36 | 1008.2 |
| 20260504221528 | 68 | 162 | 1.7 | 7.8 | 0.00 | 0.00 | 0.00 | 36 | 1008.3 |
| 20260504220018 | 70 | 330 | 0.9 | 6.1 | 0.00 | 0.00 | 0.00 | 29 | 1008.1 |
| 20260504214526 | 70 | 321 | 1.7 | 8.7 | 0.00 | 0.00 | 0.00 | 29 | 1007.9 |
| 20260504213005 | 73 | 124 | 0.9 | 4.3 | 0.00 | 0.00 | 0.00 | 26 | 1007.6 |
| 20260504211515 | 75 | 115 | 0.0 | 2.6 | 0.00 | 0.00 | 0.00 | 26 | 1007.6 |
| 20260504210025 | 77 | 178 | 0.0 | 1.7 | 0.00 | 0.00 | 0.00 | 23 | 1007.7 |
| 20260504204530 | 78 | 117 | 0.9 | 3.5 | 0.00 | 0.00 | 0.00 | 23 | 1007.7 |
| 20260504203027 | 78 | 202 | 0.0 | 1.7 | 0.00 | 0.00 | 0.00 | 21 | 1007.8 |
| 20260504201504 | 79 | 153 | 0.0 | 3.5 | 0.00 | 0.00 | 0.00 | 22 | 1007.9 |
| 20260504200011 | 79 | 167 | 0.0 | 2.6 | 0.00 | 0.00 | 0.00 | 22 | 1008.0 |
| 20260504194515 | 80 | 108 | 0.9 | 3.5 | 0.00 | 0.00 | 0.00 | 21 | 1008.0 |
| 20260504193020 | 80 | 105 | 1.7 | 4.3 | 0.00 | 0.00 | 0.00 | 20 | 1008.4 |
| 20260504191525 | 79 | 128 | 0.9 | 5.2 | 0.00 | 0.00 | 0.00 | 21 | 1008.4 |
| 20260504190006 | 79 | 130 | 0.9 | 4.3 | 0.00 | 0.00 | 0.00 | 22 | 1008.7 |
| 20260504184512 | 79 | 301 | 2.6 | 5.2 | 0.00 | 0.00 | 0.00 | 21 | 1008.9 |
| 20260504183018 | 79 | 120 | 1.7 | 6.1 | 0.00 | 0.00 | 0.00 | 23 | 1009.0 |
| 20260504181521 | 78 | 295 | 1.7 | 6.1 | 0.00 | 0.00 | 0.00 | 22 | 1009.3 |
| 20260504180028 | 76 | 211 | 1.7 | 5.2 | 0.00 | 0.00 | 0.00 | 23 | 1009.5 |
| 20260504174509 | 76 | 328 | 1.7 | 4.3 | 0.00 | 0.00 | 0.00 | 24 | 1009.5 |
| 20260504173015 | 75 | 39 | 1.7 | 6.1 | 0.00 | 0.00 | 0.00 | 25 | 1009.6 |
| 20260504171518 | 74 | 137 | 1.7 | 5.2 | 0.00 | 0.00 | 0.00 | 26 | 1009.7 |